Location: Campestrin
(46.4667°N, 11.7167°E)
Time: 04:23:53
(UTC+00:00)

ARGOS - Pass Details

Date: 18 April 2021
Orbit: 819 x 835 km, 98.4° (Epoch: 16 May)

Event Time Altitude Azimuth Distance (km) Brightness Sun altitude
Rises 18:34:11 0° 182° (S) 3,356 6.1 -5.5°
Reaches altitude 10° 18:36:38 10° 188° (S) 2,424 5.4 -5.9°
Maximum altitude 18:41:47 47° 261° (W) 1,093 4.3 -6.7°
Drops below altitude 10° 18:46:58 10° 335° (NNW) 2,432 6.4 -7.6°
Sets 18:49:25 0° 341° (NNW) 3,367 7.1 -7.9°
